Location: Great Wishford
(51.1167°N, 1.8833°W)
Time: 00:05:25
(UTC+00:00)

Daily predictions for brighter satellites

Satellite Brightness Start Highest point End
(mag) Time Altitude Azimuth Time Altitude Azimuth Time Altitude Azimuth
Cosmos 2082 Rocket 3.4 03:52:50 39° E 03:52:50 39° E 03:57:05 10° ESE
COSMOS 2455 4.1 03:57:05 33° SE 03:57:05 33° SE 04:00:15 10° SE
Cosmos 2278 Rocket 3.0 04:13:39 44° SE 04:14:27 48° ESE 04:19:53 10° NE
USA 215 3.2 04:11:53 10° SE 04:17:51 70° S 04:17:51 70° S
BREEZE M DEB (TANK) 4.4 04:21:18 41° SE 04:21:18 41° SE 04:23:36 10° E
CZ-2C R/B 4.0 04:16:58 10° SE 04:22:02 38° ENE 04:26:50 11° N
Cosmos 540 Rocket 4.0 04:25:25 53° ESE 04:25:25 53° ESE 04:29:31 10° SE
Cosmos 1833 Rocket 4.2 04:34:00 25° S 04:34:00 25° S 04:36:16 10° S
Cosmos 841 Rocket 3.4 04:48:36 73° N 04:49:02 81° ENE 04:54:12 10° SSE
Envisat 3.9 04:53:03 10° NNE 04:58:01 49° E 05:02:56 10° S
H-2A R/B 4.4 04:55:12 10° ESE 04:58:23 21° ENE 05:01:37 10° N
SL-19 R/B 4.1 04:55:41 10° SSE 05:01:21 77° WSW 05:03:26 40° NNW
Cosmos 1570 Rocket 4.4 05:01:27 28° N 05:04:10 62° ENE 05:09:22 10° SE
YAOGAN 6 3.2 05:02:38 10° NNE 05:06:18 58° E 05:09:55 10° S
Cosmos 1076 Rocket 3.9 05:03:41 10° S 05:08:00 65° E 05:12:21 10° NNE
Cosmos 1867 3.8 05:10:50 36° NNW 05:13:02 68° NE 05:18:29 10° SE
COSMO-SKYMED 1 2.5 05:08:53 10° SSE 05:13:14 88° ENE 05:14:38 43° NNW
APEX 4.0 05:16:51 34° E 05:16:51 34° E 05:18:55 10° SE
Cosmos 1464 Rocket 4.0 05:10:16 10° NNW 05:16:27 56° W 05:22:33 10° SSW
NOSS 3-2 (A) 4.4 05:13:49 10° SSW 05:19:06 44° ESE 05:25:10 10° NE
H-2A R/B 2.7 05:15:38 10° NNE 05:19:19 74° ESE 05:23:00 10° S
Geosat FO 4.4 05:17:59 10° SE 05:21:18 76° ENE 05:21:18 76° ENE
Helios 1B 4.5 05:20:38 10° S 05:24:56 65° WSW 05:25:50 51° NW
CENTAUR R/B 3.8 05:20:24 10° S 05:25:53 42° ESE 05:32:23 10° NE
Cosmos 2208 Rocket 4.2 05:24:24 19° NNW 05:28:27 78° ENE 05:33:53 10° SSE
Gbstr 26 Del rocket 2.9 05:28:19 53° SW 05:28:38 55° SSW 05:32:43 10° SE
Cosmos 1814 Rocket 3.8 05:28:34 29° NNW 05:31:15 76° WSW 05:36:22 10° SSE
Meteor 2-3 Rocket 4.0 05:26:30 10° S 05:32:05 69° E 05:37:46 10° NNE
COSMOS 2406 4.3 05:34:29 25° WSW 05:34:29 25° WSW 05:38:01 10° SSW
Landsat 5 3.5 05:29:14 10° S 05:33:44 73° WSW 05:36:50 20° NNW
Cosmos 2082 Rocket 2.6 05:34:44 36° W 05:35:48 40° WSW 05:40:59 10° S
Meteor 1-26 Rocket 4.3 05:31:09 10° NNW 05:37:13 89° ENE 05:43:08 10° S
COSMOS 2455 4.1 05:40:18 22° WSW 05:40:18 22° WSW 05:44:03 10° SSW
Cosmos 1850 Rocket 4.0 05:35:38 10° SW 05:40:55 62° WNW 05:46:15 10° NNE
Cosmos 2297 4.5 05:36:47 10° S 05:42:22 56° ESE 05:47:59 10° NE
CZ-4B R/B 3.8 05:40:02 10° ESE 05:42:41 22° ENE 05:45:20 10° NNE
Kosmos-917 3.8 05:43:21 26° SW 05:44:50 83° SE 05:49:58 10° NE
Cosmos 1844 Rocket 4.4 05:49:23 15° NNW 05:49:35 15° NNW 05:52:45 10° N
Cosmos 1782 2.6 05:48:34 13° NNW 05:52:01 76° W 05:55:57 10° S
CZ-2C R/B 3.7 05:51:34 10° NNE 05:56:15 54° E 06:01:01 10° S
Cosmos 2034 Rocket 4.4 05:52:10 10° NNW 05:57:51 40° W 06:03:34 10° SSW
Cosmos 2278 Rocket 2.7 05:55:34 22° WSW 05:58:40 39° NW 06:04:00 10° NNE
SKYMED 2 4.2 05:57:32 10° SSW 06:01:27 32° W 06:03:13 24° NW
USA 215 4.3 05:56:50 10° S 06:02:10 26° SW 06:05:12 19° W
CZ-2C R/B 3.1 05:57:05 10° SSW 06:02:18 41° W 06:07:27 10° NNW
Cosmos 1943 Rocket 2.4 05:56:44 10° SSW 06:02:23 75° ESE 06:08:04 10° NNE
Cosmos 1933 3.8 06:03:35 22° NW 06:05:37 36° W 06:09:18 10° SSW
Cosmos 2344 3.5 06:00:58 10° SW 06:08:22 77° NW 06:16:32 10° NE
IRAS Rocket 4.2 06:03:53 10° S 06:09:21 63° WSW 06:14:51 10° NNW
SJ-7 4.4 06:05:51 10° NNE 06:10:07 89° WNW 06:14:19 10° SSW
ADEOS 3.5 06:04:59 10° NNE 06:10:15 80° WNW 06:15:28 10° SSW
CZ-4B R/B 4.3 06:06:59 10° N 06:11:07 45° WNW 06:15:21 10° SW
Meteor 1-31 Rocket 3.1 06:08:16 10° N 06:11:55 41° WNW 06:15:34 10° SW
SL-8 R/B 4.0 06:13:03 16° WSW 06:16:48 64° S 06:21:32 10° E
Iridium 2 3.6 06:13:28 10° S 06:17:15 72° W 06:21:04 10° N
Cosmos 2279 Rocket 3.9 06:12:58 10° NNW 06:19:11 82° W 06:25:22 10° S
Cosmos 2151 3.4 06:16:15 10° SW 06:20:16 38° WNW 06:24:19 10° N
DNEPR-1 R/B 4.1 06:17:44 14° NW 06:21:42 66° NE 06:26:59 10° SE
Tsikada Rocket 4.2 06:17:13 10° SSW 06:23:10 48° WNW 06:29:14 10° N
Cosmos 1812 2.8 06:20:27 10° NNW 06:24:15 56° W 06:28:00 10° S
CZ-4C R/B 4.0 06:21:45 10° SSW 06:24:18 22° W 06:25:03 20° WNW
Cosmos 1634 Rocket 4.2 06:19:58 10° NNW 06:26:02 50° W 06:32:02 10° SSW
Cosmos 1939 Rocket 2.9 06:27:42 10° NNE 06:31:45 82° ESE 06:35:41 10° SSW
H-2A R/B 2.1 06:29:53 10° S 06:33:59 54° WSW 06:38:14 10° NNW
SMAP 3.4 06:30:40 10° NNE 06:35:21 73° ESE 06:40:00 10° S
Genesis I 3.4 06:31:59 14° NW 06:35:28 61° SW 06:39:29 10° SSE
Meteor 1-27 Rocket 4.3 06:30:59 10° N 06:36:31 62° ENE 06:42:07 10° SSE
Envisat 3.8 06:32:28 10° N 06:36:49 29° WNW 06:41:09 10° WSW
CZ-2D R/B 4.5 06:34:31 10° NNE 06:38:12 46° E 06:41:51 10° S
YAOGAN 6 4.2 06:37:04 10° NNW 06:39:19 16° WNW 06:41:33 10° W
Cosmos 1766 Rocket 3.5 06:35:02 10° SSW 06:39:22 76° W 06:43:44 10° N
Cosmos 2098 Rocket 2.8 06:36:05 10° SSW 06:39:30 55° WNW 06:43:46 10° N
Cosmos 2297 Rocket 4.1 06:40:12 10° NNW 06:44:27 21° NE 06:48:42 10° E
Lacrosse 4 Rocket 4.0 06:47:20 10° N 06:47:48 10° NNE 06:48:16 10° NNE
FALCON 9 DEB 3.8 06:46:57 10° SW 06:49:43 45° SSE 06:52:29 10° ENE
COSMO-SKYMED 1 4.4 06:48:17 10° WSW 06:50:03 12° W 06:51:48 10° WNW
H-2A R/B 4.4 06:51:14 10° NNW 06:52:55 13° WNW 06:54:37 10° W
Cosmos 2369 Rocket 2.3 06:48:17 10° SSW 06:53:52 84° ESE 06:59:30 10° NNE
Cosmos 921 Rocket 3.8 06:50:46 10° NW 06:54:40 33° WSW 06:58:37 10° SSW
FALCON 9 DEB 3.4 06:52:43 10° SW 06:55:32 54° SSE 06:58:21 10° ENE
Cosmos 1328 Rocket 3.9 06:52:17 10° NNW 06:56:30 44° W 07:00:39 10° SSW
Cosmos 2084 Rocket 3.4 06:53:30 10° WSW 06:57:15 49° NW 07:01:05 10° NE
Alouette 2 Rocket 4.0 06:53:02 10° N 06:57:47 63° ENE 07:01:26 10° SSE
Aureole 1 Rocket 2.9 06:55:21 10° WSW 06:58:05 30° WNW 07:00:48 10° N
FALCON 9 DEB 4.2 06:56:10 10° SW 06:58:54 39° SSE 07:01:39 10° E
SL-27 R/B 3.4 06:55:44 10° NNW 06:59:15 49° ENE 07:02:44 10° SE
H-2A R/B 2.6 06:55:27 10° NNE 07:00:23 62° ESE 07:05:14 10° S
PSLV R/B 4.0 06:56:43 10° S 07:00:44 62° WSW 07:04:47 10° NNW
Cosmos 1151 Rocket 4.0 06:58:37 10° NNW 07:02:24 29° W 07:06:09 10° SSW
NOAA 12 4.2 06:58:28 10° N 07:03:37 53° WNW 07:08:43 10° SW
CZ-4B R/B 3.4 07:01:14 10° N 07:04:29 30° WNW 07:07:39 10° SW
Meteor 1-10 Rocket 4.4 07:00:41 10° NNW 07:06:08 54° W 07:11:30 10° S
BREEZE-M DEB (TANK) 3.9 07:03:34 10° W 07:06:59 78° S 07:18:08 10° E
CZ-4 R/B 4.1 07:04:11 10° NE 07:07:18 22° E 07:10:21 10° SE
CZ-4B DEB 4.3 07:01:54 10° NNE 07:07:25 87° ESE 07:12:52 10° SSW
Cosmos 968 Rocket 3.7 07:04:14 10° SW 07:09:12 46° WNW 07:14:10 10° NNE
NOSS 3-2 (A) 3.7 07:04:08 10° WSW 07:09:51 53° NW 07:16:34 10° NE
